SB KEPS @ AMSAT $ORB11139.O Orbital Elements 11139.OSCAR
HR AMSAT ORBITAL ELEMENTS FOR OSCAR SATELLITES FROM WA5QGD FORT WORTH,TX May 19, 2011 Send Subscribe/unsubscribe to KEPS at http://www.amsat.org/mailman/listinfo/keps BID: ORB11139.O TO ALL RADIO AMATEURS BT
Satellite: AO-07 Catalog number: 07530 Epoch time: 11139.50573461 Element set: 81 Inclination: 101.3916 deg RA of node: 147.1784 deg Eccentricity: 0.0011889 Arg of perigee: 337.0273 deg Mean anomaly: 023.0271 deg Mean motion: 12.53582450 rev/day Decay rate: -2.7e-07 rev/day^2 Epoch rev: 67059 Checksum: 280
Satellite: FO-29 Catalog number: 24278 Epoch time: 11138.91845827 Element set: 0592 Inclination: 098.5424 deg RA of node: 286.9934 deg Eccentricity: 0.0350474 Arg of perigee: 333.2427 deg Mean anomaly: 025.0997 deg Mean motion: 13.52960597 rev/day Decay rate: -6.0e-08 rev/day^2 Epoch rev: 72850 Checksum: 348
Satellite: SO-33 Catalog number: 25509 Epoch time: 11139.78942873 Element set: 970 Inclination: 031.4351 deg RA of node: 044.9197 deg Eccentricity: 0.0353433 Arg of perigee: 353.2126 deg Mean anomaly: 006.3838 deg Mean motion: 14.28401415 rev/day Decay rate: 2.76e-06 rev/day^2 Epoch rev: 65621 Checksum: 303
Satellite: RS-22 Catalog number: 27939 Epoch time: 11139.64588566 Element set: 272 Inclination: 097.8506 deg RA of node: 355.0045 deg Eccentricity: 0.0014752 Arg of perigee: 076.7573 deg Mean anomaly: 283.5271 deg Mean motion: 14.63581362 rev/day Decay rate: 2.63e-06 rev/day^2 Epoch rev: 40816 Checksum: 326
Satellite: VO-52 Catalog number: 28650 Epoch time: 11139.67126746 Element set: 797 Inclination: 097.6433 deg RA of node: 184.0743 deg Eccentricity: 0.0025585 Arg of perigee: 255.2101 deg Mean anomaly: 104.6290 deg Mean motion: 14.82052099 rev/day Decay rate: 2.05e-06 rev/day^2 Epoch rev: 32652 Checksum: 302
Satellite: SO-67 Catalog number: 35870 Epoch time: 11139.72932697 Element set: 852 Inclination: 097.2836 deg RA of node: 184.0344 deg Eccentricity: 0.0003814 Arg of perigee: 108.8640 deg Mean anomaly: 358.0552 deg Mean motion: 15.20701354 rev/day Decay rate: 1.645e-05 rev/day^2 Epoch rev: 9261 Checksum: 312
Satellite: HO-68 Catalog number: 36122 Epoch time: 11139.81171783 Element set: 388 Inclination: 100.4167 deg RA of node: 201.0489 deg Eccentricity: 0.0007109 Arg of perigee: 290.1267 deg Mean anomaly: 069.9089 deg Mean motion: 13.16286242 rev/day Decay rate: -4.5e-07 rev/day^2 Epoch rev: 6850 Checksum: 301
/EX SB KEPS @ AMSAT $ORB11139.D Orbital Elements 11139.MICROS
HR AMSAT ORBITAL ELEMENTS FOR THE MICROSATS FROM WA5QGD FORT WORTH,TX May 19, 2011 Send Subscribe/unsubscribe to KEPS at http://www.amsat.org/mailman/listinfo/keps BID: ORB11139.D TO ALL RADIO AMATEURS BT
Satellite: UO-11 Catalog number: 14781 Epoch time: 11139.67526699 Element set: 552 Inclination: 098.0070 deg RA of node: 196.4714 deg Eccentricity: 0.0008088 Arg of perigee: 227.0310 deg Mean anomaly: 133.0209 deg Mean motion: 14.79968063 rev/day Decay rate: 4.32e-06 rev/day^2 Epoch rev: 46157 Checksum: 308
Satellite: AO-16 Catalog number: 20439 Epoch time: 11138.88354568 Element set: 0200 Inclination: 098.3821 deg RA of node: 089.4845 deg Eccentricity: 0.0009952 Arg of perigee: 250.7510 deg Mean anomaly: 109.2593 deg Mean motion: 14.31919321 rev/day Decay rate: 7.0e-07 rev/day^2 Epoch rev: 11342 Checksum: 294
Satellite: LO-19 Catalog number: 20442 Epoch time: 11138.89776171 Element set: 0118 Inclination: 098.3451 deg RA of node: 093.9640 deg Eccentricity: 0.0010976 Arg of perigee: 242.0968 deg Mean anomaly: 117.9100 deg Mean motion: 14.32145477 rev/day Decay rate: 1.38e-06 rev/day^2 Epoch rev: 11360 Checksum: 297
Satellite: AO-27 Catalog number: 22825 Epoch time: 11138.88954340 Element set: 0838 Inclination: 098.5303 deg RA of node: 083.9497 deg Eccentricity: 0.0008600 Arg of perigee: 008.2759 deg Mean anomaly: 351.8561 deg Mean motion: 14.29346725 rev/day Decay rate: 1.19e-06 rev/day^2 Epoch rev: 92000 Checksum: 319
Satellite: IO-26 Catalog number: 22826 Epoch time: 11138.89435522 Element set: 0577 Inclination: 098.5244 deg RA of node: 084.4389 deg Eccentricity: 0.0009262 Arg of perigee: 002.1551 deg Mean anomaly: 357.9669 deg Mean motion: 14.29608419 rev/day Decay rate: 6.3e-07 rev/day^2 Epoch rev: 92012 Checksum: 323
Satellite: GO-32 Catalog number: 25397 Epoch time: 11139.50935147 Element set: 482 Inclination: 098.3231 deg RA of node: 133.6069 deg Eccentricity: 0.0001739 Arg of perigee: 034.4427 deg Mean anomaly: 325.6859 deg Mean motion: 14.23208585 rev/day Decay rate: 5.7e-07 rev/day^2 Epoch rev: 66788 Checksum: 326
Satellite: NO-44 Catalog number: 26931 Epoch time: 11138.79888323 Element set: 754 Inclination: 067.0530 deg RA of node: 059.2516 deg Eccentricity: 0.0007037 Arg of perigee: 262.5985 deg Mean anomaly: 097.4328 deg Mean motion: 14.29657515 rev/day Decay rate: -1.3e-07 rev/day^2 Epoch rev: 50272 Checksum: 320
Satellite: SO-50 Catalog number: 27607 Epoch time: 11138.84696373 Element set: 0469 Inclination: 064.5589 deg RA of node: 056.8310 deg Eccentricity: 0.0069627 Arg of perigee: 327.7588 deg Mean anomaly: 031.9260 deg Mean motion: 14.71739249 rev/day Decay rate: 1.93e-06 rev/day^2 Epoch rev: 45177 Checksum: 351
Satellite: CO-55 Catalog number: 27844 Epoch time: 11139.51511685 Element set: 112 Inclination: 098.7057 deg RA of node: 148.6331 deg Eccentricity: 0.0009017 Arg of perigee: 284.8470 deg Mean anomaly: 075.1704 deg Mean motion: 14.20807775 rev/day Decay rate: 1.42e-06 rev/day^2 Epoch rev: 40884 Checksum: 304
Satellite: CO-57 Catalog number: 27848 Epoch time: 11138.53844666 Element set: 61 Inclination: 098.7122 deg RA of node: 146.8503 deg Eccentricity: 0.0008986 Arg of perigee: 293.2539 deg Mean anomaly: 066.7686 deg Mean motion: 14.20587604 rev/day Decay rate: 1.37e-06 rev/day^2 Epoch rev: 40865 Checksum: 344
Satellite: AO-51 Catalog number: 28375 Epoch time: 11138.52587482 Element set: 0973 Inclination: 098.0958 deg RA of node: 118.5356 deg Eccentricity: 0.0083526 Arg of perigee: 159.3838 deg Mean anomaly: 201.0747 deg Mean motion: 14.40755705 rev/day Decay rate: 1.11e-06 rev/day^2 Epoch rev: 36179 Checksum: 332
Satellite: CP3 Catalog number: 31129 Epoch time: 11138.66486859 Element set: 0872 Inclination: 097.8998 deg RA of node: 164.5819 deg Eccentricity: 0.0100905 Arg of perigee: 272.8707 deg Mean anomaly: 086.0936 deg Mean motion: 14.52474695 rev/day Decay rate: 1.93e-06 rev/day^2 Epoch rev: 21655 Checksum: 354
Satellite: CO-65 Catalog number: 32785 Epoch time: 11138.70806376 Element set: 0994 Inclination: 097.8511 deg RA of node: 203.1617 deg Eccentricity: 0.0013631 Arg of perigee: 272.4604 deg Mean anomaly: 087.5029 deg Mean motion: 14.81983897 rev/day Decay rate: 4.85e-06 rev/day^2 Epoch rev: 16517 Checksum: 335
Satellite: KKS-1 Catalog number: 33493 Epoch time: 11139.72960722 Element set: 594 Inclination: 098.1202 deg RA of node: 267.9323 deg Eccentricity: 0.0020882 Arg of perigee: 131.1505 deg Mean anomaly: 229.1517 deg Mean motion: 14.81666085 rev/day Decay rate: 1.341e-05 rev/day^2 Epoch rev: 12530 Checksum: 282
Satellite: SOHLA-1 Catalog number: 33496 Epoch time: 11138.90947730 Element set: 0425 Inclination: 098.0778 deg RA of node: 249.0413 deg Eccentricity: 0.0005824 Arg of perigee: 209.9676 deg Mean anomaly: 150.1196 deg Mean motion: 14.69612652 rev/day Decay rate: 1.68e-06 rev/day^2 Epoch rev: 12418 Checksum: 316
Satellite: TISAT-1 Catalog number: 36799 Epoch time: 11139.68431486 Element set: 869 Inclination: 098.1032 deg RA of node: 207.6494 deg Eccentricity: 0.0015663 Arg of perigee: 014.5353 deg Mean anomaly: 345.6315 deg Mean motion: 14.80534596 rev/day Decay rate: 8.52e-06 rev/day^2 Epoch rev: 4609 Checksum: 326
Satellite: STUDSAT Catalog number: 36801 Epoch time: 11138.81502646 Element set: 0194 Inclination: 098.1091 deg RA of node: 206.6280 deg Eccentricity: 0.0013841 Arg of perigee: 005.9157 deg Mean anomaly: 354.2215 deg Mean motion: 14.80556498 rev/day Decay rate: 2.059e-05 rev/day^2 Epoch rev: 04595 Checksum: 293
Satellite: RAX Catalog number: 37223 Epoch time: 11089.46431449 Element set: 0122 Inclination: 071.9716 deg RA of node: 212.4675 deg Eccentricity: 0.0019443 Arg of perigee: 068.5267 deg Mean anomaly: 291.7923 deg Mean motion: 14.77296529 rev/day Decay rate: 6.60e-06 rev/day^2 Epoch rev: 01926 Checksum: 313
Satellite: OOREOS Catalog number: 37224 Epoch time: 11076.42207246 Element set: 0109 Inclination: 071.9712 deg RA of node: 241.3960 deg Eccentricity: 0.0017800 Arg of perigee: 096.5373 deg Mean anomaly: 263.7815 deg Mean motion: 14.76929834 rev/day Decay rate: 8.68e-06 rev/day^2 Epoch rev: 01732 Checksum: 300
Satellite: FO-69 Catalog number: 37227 Epoch time: 11139.33290920 Element set: 0030 Inclination: 071.9683 deg RA of node: 102.8873 deg Eccentricity: 0.0017677 Arg of perigee: 330.1340 deg Mean anomaly: 029.8821 deg Mean motion: 14.76581304 rev/day Decay rate: 1.96e-06 rev/day^2 Epoch rev: 00506 Checksum: 293
Satellite: NANOSALD Catalog number: 37361 Epoch time: 11139.39378321 Element set: 0199 Inclination: 071.9649 deg RA of node: 099.5789 deg Eccentricity: 0.0029103 Arg of perigee: 244.0422 deg Mean anomaly: 115.9005 deg Mean motion: 14.93986826 rev/day Decay rate: 1.03336e-03 rev/day^2 Epoch rev: 01781 Checksum: 322
Satellite: FO-70 Catalog number: 37380 Epoch time: 11139.34200668 Element set: 0166 Inclination: 071.9715 deg RA of node: 102.9390 deg Eccentricity: 0.0018285 Arg of perigee: 327.4639 deg Mean anomaly: 032.5377 deg Mean motion: 14.76348656 rev/day Decay rate: 2.63e-06 rev/day^2 Epoch rev: 02660 Checksum: 309
/EX SB KEPS @ AMSAT $ORB11139.W Orbital Elements 11139.WEATHER
HR AMSAT ORBITAL ELEMENTS FOR WEATHER SATELLITES FROM WA5QGD FORT WORTH,TX May 19, 2011 Send Subscribe/unsubscribe to KEPS at http://www.amsat.org/mailman/listinfo/keps BID: ORB11139.W TO ALL RADIO AMATEURS BT
